Find Starlink 5156

NORAD ID: 53973 Int'l Des: 2022-125 Owner: SPXS Country: US Constellation: starlink operational
LEOCIRCULAR

現在のビュー

3D地球を読み込み中...

About Starlink 5156

Starlink 5156 (NORAD 53973) is a starlink constellation satellite (v1.5) launched Oct 5, 2022 by SPXS of US. It operates in LEO, CIRCULAR orbit with a mass of 305.00 kg.

Starlink 5156について

説明を読み込み中...

次回通過

Passes for default location (London). Set your location on the main map for personalized predictions.

高度履歴

Loading altitude history...

軌道要素

1 53973U 22125K 26170.16824103 -.00000102 00000-0 11713-4 0 9991
2 53973 53.1600 128.3379 0001338 87.6692 272.4452 15.08834118204641
Epoch: Jun 19, 2026 • Age: 9 hours

現在のステータス

高度 541.1 km
速度 7.60 km/s
衛星直下点 31.21°N, 176.9°W
打ち上げ日 Oct 5, 2022
運用期間 3.7 years
タイプ internet

技術仕様

分類 Payload
質量 305.00 kg
乾燥質量 290.00 kg
総質量 305.00 kg
長さ 0.20 m
直径 2.80 m
スパン 9.00 m
形状 Box + pan
製造者 SPXS
バスタイプ Starlink
フェーズステータス In Orbit
所有者/国 SPXS/US

Most Searched